Tracking 17154 objects as of 1-August-2015
HD Live streaming from Space Station

FENGYUN 2B AKM

Track FENGYUN 2B AKM now!
FENGYUN 2B AKM is classified as:


NORAD ID: 26460
Int'l Code: 2000-032C
Perigee: 35,734.0 km
Apogee: 35,902.6 km
Inclination: 11.6 °
Period: 1,437.4 minutes
Semi major axis: 42189 km
RCS: 7.9432 m2 (large)
Launch date: June 25, 2000
Source: People's Republic of China (PRC)

Note: This is a ROCKET BODY
Your satellite tracking list
Your tracking list is empty





NASA's NSSDC Master Catalog

Two Line Element Set (TLE):
1 26460U 00032C   15213.36471110  .00000061  00000-0  00000+0 0  9994
2 26460 011.5746 040.3089 0019977 294.1838 295.7573 01.00184327 82370

Source of the keplerian elements: AFSPC

N2YO: 289